Beaufort MCAS, SC

4:20 PM EDT on March 24, 2017 (GMT -0400)
Beaufort Marine Corps Air Station

Weather History for KNBC - November, 2011

Change the Weather History Date:

Tuesday, November 15, 2011

  Actual Average Record
Temperature  
Mean Temperature 66 °F -  
Max Temperature 75 °F 67 °F 84 °F (1955)
Min Temperature 57 °F 47 °F 26 °F (1969)
Cooling Degree Days 1    
Growing Degree Days 16 (Base 50)    
Moisture  
Dew Point 63 °F    
Average Humidity 93    
Maximum Humidity 100    
Minimum Humidity 73    
Precipitation  
Precipitation 0.01 in - - ()
Sea Level Pressure  
Sea Level Pressure 30.04 in    
Wind  
Wind Speed 3 mph (SSE)    
Max Wind Speed 10 mph    
Max Gust Speed -    
Visibility 4 miles    
Events Fog , Rain    
Averages and records for this station are not official NWS values.
T = Trace of Precipitation, MM = Missing Value Source: NWS Daily Summary

Daily Weather History Graph

Daily Weather History Graph

Search for Another Location

Airport or City:

Trip Planner

Search our weather history database for the weather conditions in past years. The results will help you decide how hot, cold, wet, or windy it might be!

Date:

Astronomy

Nov. 15, 2011 Rise Set
Actual Time 6:52 AM EST 5:22 PM EST
Civil Twilight 6:26 AM EST 5:48 PM EST
Nautical Twilight 5:56 AM EST 6:18 PM EST
Astronomical Twilight 5:27 AM EST 6:47 PM EST
Moon 9:30 PM EST (11/15) 10:48 AM EST (11/15)
Length of Visible Light 11h 22m
Length of Day
10h 30m
Waning Gibbous, 79% of the Moon is Illuminated
Nov 15
Waning Gibbous
Nov 18
Last Quarter
Nov 25
New
Dec 2
First Quarter
Dec 10
Full

Hourly Weather History & Observations

Time (EST) Temp. Dew Point Humidity Pressure Visibility Wind Dir Wind Speed Gust Speed Precip Events Conditions
12:56 AM 61.0 °F 57.0 °F 87% 30.08 in 10.0 mi SSW 4.6 mph - N/A   Clear
1:56 AM 62.1 °F 59.0 °F 90% 30.08 in 10.0 mi SSE 4.6 mph - N/A   Clear
2:56 AM 62.1 °F 59.0 °F 90% 30.07 in 10.0 mi South 4.6 mph - N/A   Clear
3:56 AM 60.1 °F 57.9 °F 93% 30.06 in 10.0 mi South 5.8 mph - N/A   Clear
4:56 AM 61.0 °F 60.1 °F 97% 30.06 in 7.0 mi South 3.5 mph - N/A   Clear
5:22 AM 60.8 °F 59.0 °F 94% 30.06 in 1.5 mi South 3.5 mph - N/A   Partly Cloudy
5:24 AM 60.8 °F 59.0 °F 94% 30.06 in 0.8 mi SSW 3.5 mph - N/A   Mist
5:32 AM 60.8 °F 60.8 °F 100% 30.07 in 0.5 mi SSW 3.5 mph - N/A Fog Fog
5:41 AM 62.6 °F 60.8 °F 94% 30.06 in 1.0 mi South 3.5 mph - N/A   Mist
5:45 AM 60.8 °F 60.8 °F 100% 30.06 in 1.8 mi South 3.5 mph - N/A   Partly Cloudy
5:54 AM 60.8 °F 59.0 °F 94% 30.07 in 0.8 mi SSW 3.5 mph - N/A   Mist
5:56 AM 60.1 °F 59.0 °F 96% 30.07 in 0.5 mi SW 3.5 mph - N/A Fog Fog
6:07 AM 60.8 °F 59.0 °F 94% 30.07 in 1.0 mi SW 3.5 mph - N/A   Mist
6:09 AM 60.8 °F 60.8 °F 100% 30.07 in 2.0 mi WSW 4.6 mph - N/A   Mostly Cloudy
6:37 AM 57.2 °F 57.2 °F 100% 30.08 in 0.5 mi West 4.6 mph - N/A Fog Fog
6:52 AM 60.8 °F 59.0 °F 94% 30.08 in 0.5 mi West 3.5 mph - 0.00 in Fog , Rain Light Rain
6:56 AM 60.1 °F 59.0 °F 96% 30.09 in 0.5 mi WNW 3.5 mph - 0.00 in Fog , Rain Light Rain
6:58 AM 60.8 °F 59.0 °F 94% 30.08 in 0.2 mi WNW 3.5 mph - 0.01 in Fog , Rain Light Rain
7:09 AM 60.8 °F 59.0 °F 94% 30.08 in 0.2 mi West 3.5 mph - 0.01 in Fog Fog
7:56 AM 61.0 °F 60.1 °F 97% 30.10 in 0.2 mi Calm Calm - 0.01 in Fog Fog
8:56 AM 63.0 °F 61.0 °F 93% 30.10 in 0.1 mi Calm Calm - N/A Fog Fog
9:56 AM 64.9 °F 64.0 °F 97% 30.10 in 0.1 mi Calm Calm - N/A Fog Fog
10:03 AM 64.4 °F 64.4 °F 100% 30.10 in 0.8 mi Calm Calm - N/A Fog Fog
10:36 AM 64.4 °F 64.4 °F 100% 30.10 in 3.0 mi Calm Calm - N/A   Overcast
10:54 AM 66.2 °F 64.4 °F 94% 30.09 in 3.0 mi Calm Calm - N/A   Overcast
10:56 AM 66.0 °F 64.0 °F 93% 30.09 in 3.0 mi Calm Calm - N/A   Overcast
11:31 AM 66.2 °F 64.4 °F 94% 30.08 in 7.0 mi East 3.5 mph - N/A   Overcast
11:56 AM 66.9 °F 64.9 °F 93% 30.08 in 5.0 mi Calm Calm - N/A   Overcast
12:56 PM 69.1 °F 64.9 °F 87% 30.04 in 5.0 mi ESE 3.5 mph - N/A   Mostly Cloudy
1:19 PM 71.6 °F 66.2 °F 83% 30.03 in 5.0 mi ESE 3.5 mph - N/A   Haze
1:42 PM 73.4 °F 66.2 °F 78% 30.02 in 6.0 mi Calm Calm - N/A   Haze
1:56 PM 72.0 °F 66.0 °F 81% 30.02 in 6.0 mi East 3.5 mph - N/A   Haze
2:56 PM 75.0 °F 66.0 °F 73% 30.00 in 10.0 mi ESE 4.6 mph - N/A   Mostly Cloudy
3:56 PM 75.0 °F 66.9 °F 76% 29.99 in 10.0 mi ESE 5.8 mph - N/A   Overcast
4:56 PM 71.1 °F 66.0 °F 84% 29.99 in 10.0 mi SE 6.9 mph - N/A   Clear
5:13 PM 69.8 °F 66.2 °F 88% 29.99 in 10.0 mi SE 6.9 mph - N/A   Scattered Clouds
5:22 PM 69.8 °F 66.2 °F 88% 29.99 in 10.0 mi SE 5.8 mph - N/A   Mostly Cloudy
5:40 PM 69.8 °F 66.2 °F 88% 29.99 in 10.0 mi SE 10.4 mph - N/A   Overcast
5:56 PM 70.0 °F 66.0 °F 87% 30.00 in 10.0 mi SE 4.6 mph - N/A   Overcast
6:56 PM 69.1 °F 66.0 °F 90% 30.01 in 9.0 mi SE 4.6 mph - N/A   Overcast
7:31 PM 68.0 °F 66.2 °F 94% 30.00 in 1.8 mi SE 3.5 mph - N/A   Overcast
7:37 PM 68.0 °F 66.2 °F 94% 30.00 in 1.0 mi ESE 4.6 mph - N/A   Mist
7:56 PM 68.0 °F 66.0 °F 93% 30.01 in 1.0 mi Calm Calm - N/A   Mist
8:19 PM 68.0 °F 66.2 °F 94% 30.01 in 1.8 mi Calm Calm - N/A   Overcast
8:27 PM 68.0 °F 66.2 °F 94% 30.01 in 2.0 mi Calm Calm - N/A   Overcast
8:37 PM 68.0 °F 66.2 °F 94% 30.02 in 4.0 mi Calm Calm - N/A   Overcast
8:56 PM 68.0 °F 66.0 °F 93% 30.02 in 7.0 mi Calm Calm - N/A   Overcast
9:56 PM 66.9 °F 66.0 °F 97% 30.02 in 2.5 mi Calm Calm - N/A   Overcast
10:08 PM 66.2 °F 66.2 °F 100% 30.02 in 4.0 mi Calm Calm - N/A   Overcast
10:17 PM 66.2 °F 66.2 °F 100% 30.02 in 1.5 mi Calm Calm - N/A   Overcast
10:20 PM 66.2 °F 66.2 °F 100% 30.02 in 0.8 mi Calm Calm - N/A   Mist
10:28 PM 66.2 °F 64.4 °F 94% 30.02 in 0.2 mi Calm Calm - N/A Fog Fog
10:46 PM 66.2 °F 64.4 °F 94% 30.01 in 0.8 mi ESE 3.5 mph - N/A   Mist
10:56 PM 66.0 °F 64.9 °F 96% 30.02 in 0.5 mi Calm Calm - N/A Fog Fog
11:15 PM 66.2 °F 64.4 °F 94% 30.01 in 1.0 mi ESE 3.5 mph - N/A   Mist
11:34 PM 66.2 °F 64.4 °F 94% 30.01 in 1.5 mi SE 4.6 mph - N/A   Overcast
11:43 PM 66.2 °F 64.4 °F 94% 30.01 in 2.0 mi SE 4.6 mph - N/A   Overcast
11:56 PM 68.0 °F 66.0 °F 93% 30.01 in 5.0 mi SSE 5.8 mph - N/A   Overcast